TimeMST,TemperatureF,Dew PointF,Humidity,Sea Level PressureIn,VisibilityMPH,Wind Direction,Wind SpeedMPH,Gust SpeedMPH,PrecipitationIn,Events,Conditions,WindDirDegrees,DateUTC
12:52 AM,-14.1,-20.9,71,30.75,10.0,Calm,Calm,-,N/A,,Clear,0,2013-12-10 07:52:00
1:52 AM,-18.9,-24.0,78,30.79,10.0,SW,6.9,-,N/A,,Clear,230,2013-12-10 08:52:00
2:52 AM,-16.1,-22.0,74,30.76,10.0,WNW,6.9,-,N/A,,Clear,290,2013-12-10 09:52:00
3:52 AM,-18.0,-24.0,74,30.78,10.0,WNW,3.5,-,N/A,,Clear,300,2013-12-10 10:52:00
4:52 AM,-22.0,-27.0,77,30.84,10.0,SSW,8.1,-,N/A,,Clear,210,2013-12-10 11:52:00
5:52 AM,-20.9,-27.0,73,30.85,10.0,SE,4.6,-,N/A,,Clear,140,2013-12-10 12:52:00
6:52 AM,-23.1,-27.9,78,30.88,10.0,Calm,Calm,-,N/A,,Clear,0,2013-12-10 13:52:00
7:52 AM,-15.0,-22.0,71,30.85,10.0,West,4.6,-,N/A,,Clear,260,2013-12-10 14:52:00
8:52 AM,-9.9,-14.1,82,30.83,10.0,Calm,Calm,-,N/A,,Clear,0,2013-12-10 15:52:00
9:52 AM,-6.0,-14.1,68,30.80,10.0,East,3.5,-,N/A,,Clear,90,2013-12-10 16:52:00
10:52 AM,-0.9,-11.0,62,30.76,10.0,ESE,3.5,-,N/A,,Clear,120,2013-12-10 17:52:00
11:52 AM,3.0,-9.0,57,30.71,10.0,Calm,Calm,-,N/A,,Clear,0,2013-12-10 18:52:00
12:52 PM,6.1,-7.1,55,30.64,10.0,Calm,Calm,-,N/A,,Clear,0,2013-12-10 19:52:00
1:52 PM,7.0,-5.1,58,30.64,10.0,SSW,3.5,-,N/A,,Clear,200,2013-12-10 20:52:00
2:52 PM,8.1,-5.1,55,30.61,10.0,SW,4.6,-,N/A,,Clear,230,2013-12-10 21:52:00
3:52 PM,8.1,-6.0,53,30.62,10.0,West,3.5,-,N/A,,Clear,260,2013-12-10 22:52:00
4:52 PM,5.0,-7.1,58,30.67,10.0,West,3.5,-,N/A,,Clear,280,2013-12-10 23:52:00
5:52 PM,1.9,-7.1,66,30.69,10.0,Calm,Calm,-,N/A,,Clear,0,2013-12-11 00:52:00
6:52 PM,-0.9,-5.1,83,30.74,10.0,Calm,Calm,-,N/A,,Clear,0,2013-12-11 01:52:00
7:52 PM,-4.0,-8.0,83,30.73,10.0,NE,4.6,-,N/A,,Clear,40,2013-12-11 02:52:00
8:52 PM,-2.9,-9.0,75,30.70,9.0,NNW,4.6,-,N/A,,Clear,340,2013-12-11 03:52:00
9:52 PM,-9.9,-15.0,78,30.75,10.0,Calm,Calm,-,N/A,,Clear,0,2013-12-11 04:52:00
10:52 PM,-11.9,-17.0,78,30.73,10.0,Calm,Calm,-,N/A,,Clear,0,2013-12-11 05:52:00
11:52 PM,-13.0,-18.0,78,30.73,10.0,South,4.6,-,N/A,,Clear,190,2013-12-11 06:52:00